Location: downtown San Diego
(32.7310°N, 117.1990°W)
Time: 15:00:43
(UTC-07:00)

IGS 5A - Pass Details

Date: 14 June 2018
Orbit: 584 x 589 km, 97.7° (Epoch: 11 August)

Event Time Altitude Azimuth Distance (km) Brightness Sun altitude
Exits shadow 22:43:04 51° 11° (N) 747 4.1 -26.4°
Drops below altitude 10° 22:46:16 10° 353° (N) 1,917 6.9 -26.7°
Sets 22:48:26 0° 351° (N) 2,820 8.0 -27.0°
